Content
SEND FEEDBACK

Daily
Averages
Monthly
Summary
Libya

AL MASHASHITAH, LIBYA


Home > Africa > Libya
Elevation: 82 feet     Latitude: 32 54N     Longitude: 013 10E

WEATHER
 
SELECT A DAY
Number of Records: 167,291;   Date Range: 7/1/96 - 9/2/14
 
SHARE

PRINT THIS DATA

[ ← Previous Day ]
WEATHER ALMANAC - FEBRUARY 13, 2013
[ Next Day → ]
[ °C ]   °F
Weather ElementAverageHighLow
Temperature51.1 °F60.8 °F (12:20 pm)41 °F (6:20 am)
Dewpoint32 °F38 °F (7:00 pm)26.6 °F (4:50 am)
Humidity49.2 %81 % (9:50 pm)27 % (12:50 pm)
Barometer29.95 in30.00 in (10:00 am)29.92 in (12:50 am)
Wind Speed10.2 mph19.6 mph (12:50 pm)
Wind Gust25.3 mph (2:20 pm)
Weather ElementAverage
Visibility6 mi
Wind DirectionW (266.2 °)

Weather ElementTotal
Precipitation---
Heating Degree Days14.1 (Base 65)
Growing Degree Days0.9 (Base 50)
Averaged from 45 records on February 13, 2013
WEATHER CONDITIONS BREAKOUT
WIND DIRECTION BREAKOUT
WEATHER BY HOUR - FEBRUARY 13, 2013
[ °C ]   °F
Local TimeTemperatureDewpointHumidityBarometerVisibilityWind DirectionWind SpeedGust SpeedPrecipitationEventsConditions
12:50 AM42.8 °F30.2 °F61 %29.92 inWest (270°)8.1 mphClear
1:00 AM43.0 °F29.0 °F47 %29.95 in6.0 miWest (270°)8.1 mph
3:50 AM42.8 °F28.4 °F57 %29.95 inSW (230°)6.9 mphClear
4:50 AM44.6 °F26.6 °F49 %29.92 inWSW (240°)9.2 mphClear
5:50 AM42.8 °F28.4 °F57 %29.92 inWSW (240°)6.9 mphClear
6:20 AM41.0 °F28.4 °F61 %29.95 inSW (220°)8.1 mphClear
6:50 AM42.8 °F28.4 °F57 %29.95 inSW (220°)4.6 mphClear
7:00 AM42.0 °F28.0 °F45 %29.96 in6.0 miSW (220°)4.6 mphClear
8:20 AM46.4 °F28.4 °F50 %29.95 inSW (230°)10.4 mphClear
8:50 AM48.2 °F28.4 °F46 %29.98 inWSW (240°)9.2 mphClear
9:20 AM50.0 °F28.4 °F43 %29.98 inWSW (250°)11.5 mphClear
9:50 AM51.8 °F28.4 °F41 %29.98 inWest (260°)12.7 mphClear
10:00 AM52.0 °F29.0 °F28 %30.00 in6.0 miWest (270°)13.8 mphClear
10:20 AM55.4 °F28.4 °F36 %29.98 in5.0 miWest (260°)16.1 mph
10:50 AM57.2 °F28.4 °F33 %29.98 in5.0 miWest (260°)15.0 mph
11:20 AM59.0 °F28.4 °F31 %29.98 inWest (270°)15.0 mphClear
11:50 AM59.0 °F26.6 °F29 %29.95 inWNW (290°)15.0 mphClear
12:20 PM60.8 °F28.4 °F29 %29.95 inWest (280°)17.3 mphClear
12:50 PM60.8 °F26.6 °F27 %29.95 inWNW (290°)19.6 mphClear
1:00 PM60.0 °F37.0 °F30 %29.97 in6.0 miWNW (290°)19.6 mphClear
1:20 PM60.8 °F26.6 °F27 %29.92 inWest (280°)17.3 mphClear
1:50 PM60.8 °F26.6 °F27 %29.92 in6.2 miWNW (290°)18.4 mphScattered Clouds
2:20 PM60.8 °F28.4 °F29 %29.92 in6.2 miNW (320°)13.8 mph25.3 mphScattered Clouds
2:50 PM60.8 °F28.4 °F29 %29.92 in6.2 miNW (320°)13.8 mphScattered Clouds
3:20 PM60.8 °F30.2 °F31 %29.92 in6.2 miNW (310°)12.7 mphPartly Cloudy
3:50 PM59.0 °F35.6 °F42 %29.92 in6.2 miNNW (340°)16.1 mphPartly Cloudy
4:00 PM58.0 °F35.0 °F30 %29.94 in6.0 miNNW (340°)16.1 mphScattered Clouds
4:20 PM57.2 °F33.8 °F41 %29.92 in6.2 miNNW (330°)13.8 mphPartly Cloudy
4:50 PM57.2 °F33.8 °F41 %29.92 in6.2 miNNW (330°)13.8 mphPartly Cloudy
5:20 PM55.4 °F35.6 °F47 %29.92 in6.2 miNW (310°)11.5 mphPartly Cloudy
5:50 PM53.6 °F37.4 °F54 %29.92 in6.2 miNW (310°)9.2 mphPartly Cloudy
6:20 PM51.8 °F37.4 °F58 %29.92 in6.2 miNW (310°)5.8 mphPartly Cloudy
6:50 PM51.8 °F37.4 °F58 %29.92 in6.2 miWNW (290°)2.3 mphPartly Cloudy
7:00 PM52.0 °F38.0 °F48 %29.96 in6.0 miNW (320°)4.6 mphScattered Clouds
7:20 PM51.8 °F37.4 °F58 %29.95 in6.2 miNW (310°)3.5 mphPartly Cloudy
7:50 PM48.2 °F37.4 °F66 %29.95 in6.2 miSW (230°)3.5 mphPartly Cloudy
8:20 PM46.4 °F37.4 °F71 %29.95 in6.2 miSW (220°)3.5 mphPartly Cloudy
8:50 PM44.6 °F37.4 °F76 %29.95 inSW (230°)4.6 mph
9:20 PM44.6 °F37.4 °F76 %29.95 inSSW (210°)5.8 mphClear
9:50 PM42.8 °F37.4 °F81 %29.95 inSSW (210°)5.8 mphClear
10:00 PM44.0 °F37.0 °F67 %29.98 in6.0 miSSW (210°)5.8 mph
10:20 PM42.8 °F35.6 °F76 %29.95 inSSW (210°)5.8 mphClear
10:50 PM42.8 °F35.6 °F76 %29.95 inSSW (210°)5.8 mphClear
11:20 PM42.8 °F35.6 °F76 %29.95 inSW (220°)5.8 mphClear
11:50 PM44.6 °F35.6 °F71 %29.95 in4.3 miSW (220°)6.9 mphScattered Clouds
Hourly data recorded from HLLT, located miles away from Al Mashashitah, Libya







STORIES FROM OUR PARTNERS